STARLINK-37145, 68548

Orbit data source: Space-Track

STARLINK-37145, 68548 is a payload satellite owned by SpaceX/Seattle (US) in LEO that was launched on Thu, 02 Apr 2026 UTC via an FALCON 9 launch vehicle from the Air Force Eastern Test Range (AFETR). Payload-class satellites include a variety of spacecraft equipped with specific instruments for various scientific and technological missions. These include communications satellites like Starlink; space stations such as the ISS; scientific satellites like the Hubble; Earth observation satellites from companies like Planet Labs, Umbra, and HawkEye 360; GPS; miniature CubeSats for education and research; and military/defense satellites.

Loading next visibility...
Identifier
68548, 2026-070G
Orbit
LEO
Country
Flag of USUS
Related business
Manufacturer
SpaceX/Seattle
Mission
Operational Commercial Communications
Bus & Motor
STARLINK V2MO, Unknown motor
Mass
575 kg wet, ~530 kg dry
Launch date (UTC)
2026-04-02 (5 months ago)
Launch vehicle
FALCON 9
Launch site
Air Force Eastern Test Range (AFETR)
Object type
Payload
Rocket body
Debris
Shape & HBR
Box + 1 Pan, 17.7 m
Radar Cross Section
41.120 m², Large (>1 m²)

Expand to show TLE details & history
Last TLE update: 22 hours ago

TLE from 22 hours ago
0 STARLINK-37145
1 68548U 26070G   26246.49065054 -.00243628  00000-0 -74758-2 0  9999
2 68548  53.1562 253.4074 0001499 120.2694 239.8457 15.34226752 23827
Epoch: 2026-09-03T11:46Z
TLE epoch observation values (Epoch: 2026-09-03T11:46:32.206Z)
Latitude
-0.00003°
Longitude
94.14511°
Altitude
464.634 km
Speed
7.635 km/s
True Right ascension
16h 53m 37s
True Declination
0° 00' 00"
Sunlit
Object was in daylight at epoch
Visualization orbit readout
Latitude
Unknown
Longitude
Unknown
Altitude
Unknown
Speed
Unknown
Apparent Right ascension
Unknown
Apparent Declination
Unknown
Sunlit
N/A
Visualization observer readout
Local Sidereal Time
01:37:20
Azimuth
Unknown
Elevation
Unknown
Doppler factor
Unknown
Orbital elements
Apogee altitude
464.501 km
Perigee altitude
462.45 km
Semi-major axis
6,841.613 km
Eccentricity
0.00015
Inclination
53.1562°
RAAN
253.4074°
Arg. of periapsis
120.2694°
True anomaly
239.83085°
Mean anomaly
239.8457°
Eccentric anomaly
239.83827°
Mean motion
3.83535 °/min
Orbital period
93.86 mins
BSTAR
-0.0074758
Loading maneuver chart data...
Computing Atmospheric mass density...
Loading historical data...
Loading historical data...
Loading historical data...
Loading historical data...
Loading historical data...
Loading historical data...
Loading historical data...

Documentation

Showing up to 5 results
|